Weather reports worldwide

Advertisment
Pajala A, Sweden (2095): temperature & dewpoint: 17.10.2019 21:00:00 - 23.10.2019 21:00:00 (CEST)Pajala A, Sweden (2095): wind speed & gusts: 17.10.2019 21:00:00 - 23.10.2019 21:00:00 (CEST)Pajala A, Sweden (2095): wind direction: 17.10.2019 21:00:00 - 23.10.2019 21:00:00 (CEST)Pajala A, Sweden (2095): reduced air pressure: 17.10.2019 21:00:00 - 23.10.2019 21:00:00 (CEST)Pajala A, Sweden (2095): visibility: 17.10.2019 21:00:00 - 23.10.2019 21:00:00 (CEST)Pajala A, Sweden (2095): precipitation: 17.10.2019 21:00:00 - 23.10.2019 21:00:00 (CEST)
Date & Time tt [°C] td [°C] ff [km/h] ff [kn] fx [km/h] fx [kn] dd ppp [hPa] vv [km] rr [mm]
23.10.2019 21:00:00 -3,9 -4,4 2 1 5 3 SW 1005,2 11 0,0
23.10.2019 20:00:00 -2,6 -2,9 2 1 6 3 WSW 1005,0 0,5 0,0
23.10.2019 19:00:00 -1,7 -1,8 3 2 9 5 SSW 1004,3 0,4 0,0
23.10.2019 18:00:00 -1,2 -1,3 3 2 14 8 S 1003,6 0,5 0,0
23.10.2019 17:00:00 -0,9 -1,2 2 1 6 4 SW 1003,4 3,0 0,0
23.10.2019 16:00:00 -0,5 -1,3 3 1 9 5 WSW 1003,0 3,3 0,0
23.10.2019 15:00:00 0,9 -0,4 0 0 8 4 N 1002,5 24 0,0
23.10.2019 14:00:00 0,6 -0,4 3 2 7 4 SSE 1001,8 12 0,0
23.10.2019 13:00:00 -0,1 -0,9 5 3 11 6 SSE 1001,0 - 0,0
23.10.2019 12:00:00 -0,4 -1,8 4 2 10 5 SSE 1000,6 13 0,0
23.10.2019 11:00:00 -0,9 -2,6 4 2 11 6 E 1000,3 11 0,0
23.10.2019 10:00:00 -0,8 -2,4 3 2 10 5 N 1000,0 17 0,0
23.10.2019 09:00:00 -0,8 -1,9 5 3 11 6 N 999,6 24 0,0
23.10.2019 08:00:00 -0,3 -1,7 7 4 10 5 NW 998,3 50 0,0
23.10.2019 07:00:00 0,0 -0,7 - - - - - 996,8 - 0,0
23.10.2019 06:00:00 -0,6 -1,2 - - - - - 995,5 - 0,0
23.10.2019 05:00:00 0,4 -0,5 - - 18 10 - 994,2 - 0,0
23.10.2019 04:00:00 0,5 0,2 9 5 16 9 NW 992,5 27 0,0
23.10.2019 03:00:00 0,1 -0,5 5 3 16 8 NW 990,1 30 0,0
23.10.2019 02:00:00 0,0 -0,3 7 4 10 6 WSW 988,5 10 0,0
23.10.2019 01:00:00 1,7 0,7 4 2 18 10 NW 986,5 28 0,0
23.10.2019 00:00:00 1,0 0,4 10 5 16 9 WSW 984,5 33 0,0
22.10.2019 23:00:00 1,6 0,6 7 4 23 13 WSW 982,9 26 0,0
22.10.2019 22:00:00 2,0 0,8 6 3 16 8 SW 981,4 27 0,0
22.10.2019 21:00:00 1,9 1,0 8 4 21 11 S 980,8 23 0,0
22.10.2019 20:00:00 2,0 1,6 11 6 21 11 S 980,8 23 0,0
22.10.2019 19:00:00 1,8 1,5 9 5 23 13 S 981,0 29 0,0
22.10.2019 18:00:00 1,4 1,1 8 4 25 13 S 981,8 23 0,0
22.10.2019 17:00:00 1,3 1,2 10 5 23 12 SSE 982,8 17 0,0
22.10.2019 16:00:00 1,1 1,0 10 6 24 13 S 984,3 24 0,0
22.10.2019 15:00:00 0,6 0,5 12 7 23 12 S 985,7 16 0,0
22.10.2019 14:00:00 0,2 0,1 12 7 28 15 SSE 986,8 1,5 1,4
22.10.2019 13:00:00 0,3 0,0 13 7 28 15 SE 988,7 2,2 0,1
22.10.2019 12:00:00 0,3 0,0 14 7 29 16 SSE 990,8 6 0,0
22.10.2019 11:00:00 -0,3 -0,7 14 8 28 15 SSE 992,8 9 0,0
22.10.2019 10:00:00 -1,1 -1,4 12 6 24 13 SSE 994,6 4,7 0,0
22.10.2019 09:00:00 -2,2 -2,8 10 5 17 9 SSE 996,1 19 0,0
22.10.2019 08:00:00 -3,8 -4,5 5 3 12 6 SSE 997,9 50 0,0
22.10.2019 07:00:00 -4,4 -5,1 5 3 12 7 SSE 999,3 50 0,0
22.10.2019 06:00:00 -4,3 -5,3 5 3 15 8 SE 1000,8 50 0,0
22.10.2019 05:00:00 -4,2 -5,2 5 3 10 6 SSE 1002,4 50 0,0
22.10.2019 04:00:00 -4,5 -5,3 4 2 - - ESE 1003,7 50 0,0
22.10.2019 03:00:00 -5,2 -6,0 4 2 8 4 SE 1004,9 50 0,0
22.10.2019 02:00:00 -5,9 -6,7 4 2 8 4 ESE 1005,9 50 0,0
22.10.2019 01:00:00 -6,9 -7,8 3 2 6 4 ESE 1006,9 50 0,0
22.10.2019 00:00:00 -7,7 -8,6 0 0 5 3 N 1007,9 50 0,0
21.10.2019 23:00:00 -7,8 -8,9 3 2 6 4 ESE 1008,4 50 0,0
21.10.2019 22:00:00 -7,5 -8,6 4 2 8 4 SE 1009,2 50 0,0
21.10.2019 21:00:00 -8,4 -9,5 3 2 6 4 ENE 1009,8 50 0,0
21.10.2019 20:00:00 -10,1 -11,4 4 2 5 3 SSE 1010,5 50 0,0
21.10.2019 19:00:00 -10,0 -11,3 0 0 3 1 N 1011,2 50 0,0
21.10.2019 18:00:00 -9,6 -10,8 0 0 5 3 N 1011,6 48 0,0
21.10.2019 17:00:00 -7,6 -8,5 4 2 7 4 E 1012,1 30 0,0
21.10.2019 16:00:00 -5,7 -7,2 4 2 9 5 SSE 1012,5 50 0,0
21.10.2019 15:00:00 -5,1 -6,8 4 2 10 5 SSE 1012,6 50 0,0
21.10.2019 14:00:00 -5,7 -7,4 6 4 10 6 SSE 1012,7 49 0,0
21.10.2019 13:00:00 -6,0 -8,0 4 2 9 5 SE 1013,0 50 0,0
21.10.2019 12:00:00 -6,7 -8,5 3 1 8 4 S 1013,1 50 0,0
21.10.2019 11:00:00 -8,6 -10,2 2 1 9 5 SW 1013,2 14 0,0
21.10.2019 10:00:00 -12,0 -13,6 2 1 4 2 W 1013,3 20 0,0
21.10.2019 09:00:00 -15,8 -17,7 0 0 3 2 N 1013,0 19 0,0
21.10.2019 08:00:00 -17,4 -19,4 2 1 5 3 W 1013,6 21 0,0
21.10.2019 07:00:00 -17,1 -19,2 2 1 5 3 WSW 1013,6 18 0,0
21.10.2019 06:00:00 -16,6 -18,5 4 2 5 3 WSW 1013,3 21 0,0
21.10.2019 05:00:00 -15,6 -17,5 3 1 9 5 NW 1013,6 20 0,0
21.10.2019 04:00:00 -14,8 -16,5 5 3 10 5 SW 1013,9 19 0,0
21.10.2019 03:00:00 -13,7 -15,5 0 0 5 3 N 1014,5 23 0,0
21.10.2019 02:00:00 -13,2 -14,5 2 1 9 5 E 1015,0 18 0,0
21.10.2019 01:00:00 -15,1 -16,9 4 2 5 3 SSE 1015,5 17 0,0
21.10.2019 00:00:00 -15,7 -17,4 5 3 7 4 SSE 1016,1 18 0,0
20.10.2019 23:00:00 -16,0 -17,8 2 1 11 6 ENE 1016,5 18 0,0
20.10.2019 22:00:00 -17,5 -19,5 5 3 8 4 SW 1017,3 10 0,0
20.10.2019 21:00:00 -17,0 -19,1 2 1 6 4 SSE 1018,0 9 0,0
20.10.2019 20:00:00 -16,3 -18,2 2 1 4 2 SSE 1018,4 44 0,0
20.10.2019 19:00:00 -14,7 -16,5 0 0 5 3 N 1018,7 36 0,0
20.10.2019 18:00:00 -12,9 -14,5 0 0 7 4 N 1019,0 21 0,0
20.10.2019 17:00:00 -8,2 -8,9 4 2 9 5 ESE 1019,4 11 0,0
20.10.2019 16:00:00 -8,1 -10,3 4 2 6 3 SE 1020,1 16 0,0
20.10.2019 15:00:00 -5,4 -7,7 2 1 5 3 E 1020,3 13 0,0
20.10.2019 14:00:00 -6,1 -8,4 2 1 5 3 NNE 1020,8 14 0,0
20.10.2019 13:00:00 -6,8 -9,2 2 1 4 2 N 1021,3 11 0,0
20.10.2019 12:00:00 -8,1 -10,6 0 0 6 3 N 1021,7 14 0,0
20.10.2019 11:00:00 -9,0 -11,2 4 2 7 4 WNW 1021,8 15 0,0
20.10.2019 10:00:00 -10,4 -13,0 2 1 4 2 W 1021,7 47 0,0
20.10.2019 09:00:00 -14,6 -16,6 0 0 4 2 N 1021,7 13 -
20.10.2019 08:00:00 -16,0 -17,8 3 2 4 2 SSW 1021,4 32 -
20.10.2019 07:00:00 -15,2 -17,0 0 0 8 4 N 1021,2 50 0,0
20.10.2019 06:00:00 -12,6 -14,0 5 3 9 5 NW 1021,1 49 0,0
20.10.2019 05:00:00 -11,7 -13,0 6 3 10 5 NW 1020,6 44 0,0
20.10.2019 04:00:00 -11,1 -12,4 0 0 14 8 N 1020,3 17 0,0
20.10.2019 03:00:00 -9,6 -10,9 10 5 17 9 NNW 1019,4 13 0,0
20.10.2019 02:00:00 -8,8 -10,3 8 5 15 8 NW 1018,9 16 0,0
20.10.2019 01:00:00 -8,3 -9,6 7 4 13 7 WNW 1018,0 23 0,0
20.10.2019 00:00:00 -7,1 -9,0 8 4 17 9 NW 1017,4 50 0,0
19.10.2019 23:00:00 -6,1 -7,9 8 4 20 11 NNW 1016,6 15 0,0
19.10.2019 22:00:00 -5,6 -7,4 11 6 21 11 N 1015,7 12 0,0
19.10.2019 21:00:00 -5,5 -7,3 13 7 23 12 N 1015,1 12 0,0
19.10.2019 20:00:00 -4,9 -6,6 14 8 23 13 N 1014,4 42 0,0
19.10.2019 19:00:00 -4,3 -5,7 14 8 21 11 N 1014,0 33 0,0
19.10.2019 18:00:00 -3,8 -5,2 11 6 24 13 N 1013,2 50 0,0
19.10.2019 17:00:00 -3,2 -4,6 15 8 25 14 N 1012,7 19 0,0
19.10.2019 16:00:00 -2,4 -3,8 19 10 27 15 N 1012,3 50 0,0
19.10.2019 15:00:00 -2,0 -3,4 14 7 23 13 N 1012,1 46 0,0
19.10.2019 14:00:00 -1,4 -2,8 15 8 27 14 N 1011,5 43 0,0
19.10.2019 13:00:00 -0,4 -1,8 15 8 24 13 N 1011,1 48 0,0
19.10.2019 12:00:00 -0,6 -1,6 13 7 21 12 N 1010,6 47 0,0
19.10.2019 11:00:00 -0,6 -1,6 11 6 18 10 N 1010,3 40 0,0
19.10.2019 10:00:00 -0,9 -1,7 9 5 17 9 NNW 1009,7 50 0,0
19.10.2019 09:00:00 -0,8 -1,6 9 5 20 11 N 1009,4 32 0,0
19.10.2019 08:00:00 -0,9 -1,5 13 7 21 12 N 1008,8 16 0,0
19.10.2019 07:00:00 -0,6 -1,2 12 6 18 10 N 1008,6 17 0,0
19.10.2019 06:00:00 -0,4 -0,8 8 5 14 8 NNW 1007,9 13 0,1
19.10.2019 05:00:00 -0,2 -0,6 7 4 14 8 N 1007,3 3,8 0,2
19.10.2019 04:00:00 0,0 -0,3 10 5 16 9 NNW 1007,1 10 -
19.10.2019 03:00:00 -0,1 -0,2 5 3 9 5 N 1006,8 19 0,0
19.10.2019 02:00:00 -0,2 -0,3 5 3 7 4 NNW 1006,7 3,5 0,2
19.10.2019 01:00:00 -0,1 -0,2 3 2 5 3 NNW 1006,8 2,9 0,2
19.10.2019 00:00:00 -0,1 -0,2 3 2 5 3 NNE 1006,8 2,5 0,2
18.10.2019 23:00:00 -0,1 -0,2 0 0 6 3 N 1007,1 6 0,1
18.10.2019 22:00:00 0,0 -0,1 0 0 3 2 N 1007,1 2,0 0,5
18.10.2019 21:00:00 0,0 -0,1 0 0 3 2 N 1007,1 2,5 0,4
18.10.2019 20:00:00 0,2 0,1 2 1 4 2 SE 1007,3 3,2 0,1
18.10.2019 19:00:00 0,2 0,1 3 2 9 5 SSE 1007,4 3,1 0,1
18.10.2019 18:00:00 0,2 -0,1 5 3 10 5 SE 1007,6 4,3 0,2
18.10.2019 17:00:00 0,3 0,0 5 3 10 5 SE 1007,7 8 0,2
18.10.2019 16:00:00 0,3 0,0 4 2 12 6 SE 1007,9 2,4 0,5
18.10.2019 15:00:00 0,5 0,2 6 3 11 6 SSE 1008,1 7 0,3
18.10.2019 14:00:00 0,4 0,1 5 3 10 6 SSE 1008,3 3,3 0,5
18.10.2019 13:00:00 0,5 -0,1 4 2 11 6 SE 1008,7 9 0,0
18.10.2019 12:00:00 0,2 -0,4 7 4 16 9 SSE 1009,1 19 0,0
18.10.2019 11:00:00 -0,3 -0,6 9 5 16 9 SSE 1009,2 6 0,0
18.10.2019 10:00:00 -0,6 -1,0 11 6 18 10 SSE 1009,6 5 0,0
18.10.2019 09:00:00 -0,8 -1,4 8 4 20 11 SSE 1009,4 22 0,0
18.10.2019 08:00:00 -1,1 -1,7 9 5 19 11 SSE 1009,6 30 0,0
18.10.2019 07:00:00 -1,2 -1,6 9 5 21 11 SSE 1010,0 10 0,0
18.10.2019 06:00:00 -1,3 -1,7 11 6 19 10 SSE 1010,4 10 0,0
18.10.2019 05:00:00 -1,4 -2,0 10 5 18 10 SSE 1010,7 21 0,0
18.10.2019 04:00:00 -1,6 -2,0 8 4 16 9 SE 1011,6 15 0,0
18.10.2019 03:00:00 -1,7 -2,4 8 4 16 9 SE 1012,2 4,2 0,0
18.10.2019 02:00:00 -1,7 -2,5 7 4 13 7 SSE 1012,7 50 0,0
18.10.2019 01:00:00 -1,8 -2,6 5 3 10 6 SSE 1013,5 14 0,0
18.10.2019 00:00:00 -1,8 -2,5 4 2 8 4 SE 1014,1 6 0,0
17.10.2019 23:00:00 -1,8 -2,8 4 2 8 4 SSE 1014,7 5 0,0
17.10.2019 22:00:00 -1,9 -3,0 4 2 7 4 SSE 1015,2 50 0,0
17.10.2019 21:00:00 -1,9 -3,0 4 2 9 5 SSE 1015,6 50 0,0

tt = temperature
td = dewpoint
ff = wind speed
fx = gusts
dd = wind direction
ppp = reduced air pressure
vv = visibility
rr = precipitation

Next stations